Regional Weather Roundup
Issued by NWS

Home | Current Version | Previous Version | Graphics & Text | Print | Product List | Glossary On
Versions: 1 2 3 4 5 6 7 8 9 10 11 12 13 14 15 16 17 18 19 20 21 22 23 24 25 26 27
000
ASUS45 KSLC 072210
RWRUT

UTAH REGIONAL WEATHER ROUNDUP
NATIONAL WEATHER SERVICE SALT LAKE CITY UT
300 PM MST WED DEC 07 2016

UTZ001>011-023>025-072300-

NORTHERN UTAH

CITY           SKY/WX    TMP DP  RH WIND       PRES   REMARKS
BRIGHAM CITY     N/A     28   6  39 CALM      30.30R
HILL AFB       MOSUNNY   24  11  58 SW6       30.25S WCI  17
LOGAN          MOSUNNY   24   6  46 CALM      30.28R
OGDEN          CLOUDY    25  11  55 CALM      30.27R
SALT LAKE CITY MOSUNNY   27  12  53 NW8       30.28S WCI  19
TOOELE VALLEY  SUNNY     28  16  59 N5        30.28S WCI  23
WENDOVER       SUNNY     27   7  43 E5        30.28S WCI  21
HEBER CITY     SUNNY     27   5  39 W3        30.18R
WEST JORDAN    SUNNY     26  18  72 NW7       30.27R WCI  18

$$

UTZ011>015-024>027-072300-

CENTRAL/NORTHEAST UTAH

CITY           SKY/WX    TMP DP  RH WIND       PRES   REMARKS
PROVO AIRPORT  SUNNY     28  11  48 W5        30.27R WCI  23
MOAB/CANYONLAN SUNNY     35  -1  21 NW15      30.16R WCI  25
DELTA          SUNNY     30   3  31 N6        30.24R WCI  24
PRICE          SUNNY     28 -13  16 N14       30.15R WCI  17
ROOSEVELT      PTSUNNY   34  -8  16 S6        30.18R WCI  29
VERNAL         CLOUDY    29  -2  26 VRB6      30.18R WCI  23

$$

UTZ013>016-019>022-027-072300-

SOUTHERN UTAH

CITY           SKY/WX    TMP DP  RH WIND       PRES   REMARKS
BRYCE CANYON   SUNNY     27   2  34 VRB3      30.07S
CEDAR CITY     SUNNY     33   6  32 N9        30.12R WCI  25
MILFORD        SUNNY     32  11  41 N15       30.18S WCI  22
ST GEORGE      CLEAR     48  10  21 CALM      30.16S
HANKSVILLE     SUNNY     37   3  23 NW9       30.20R WCI  31
BLANDING       SUNNY     33   0  24 N7G16     30.18R WCI  27

$$

REGIONAL REPORTS     COLORADO/ARIZONA

CITY           SKY/WX    TMP DP  RH WIND       PRES   REMARKS
CRAIG, CO      MOSUNNY   17   1  49 NW6       30.19R WCI   9
GRAND JUNCTION SUNNY     31   8  38 NW7       30.17R WCI  24
RIFLE, CO      PTSUNNY   28   6  39 NW10      30.16R WCI  19
MONTROSE, CO   MOSUNNY   29   4  34 NW7       30.15R WCI  22
CORTEZ, CO     SUNNY     34   0  23 N9G18     30.09R WCI  27
COLORADO CITY    N/A     45  10  24 CALM      30.13R
PAGE, AZ       SUNNY     43   6  21 VRB7      30.11S
GRAND CANYON   SUNNY     41  15  35 VRB7      30.07R
KINGMAN, AZ    SUNNY     52   8  17 N10G20    30.08S
FLAGSTAFF, AZ  MOSUNNY   41  27  57 SW10      30.05R

$$

REGIONAL REPORTS    NEVADA/IDAHO/WYOMING

CITY           SKY/WX    TMP DP  RH WIND       PRES   REMARKS
LAS VEGAS, NV  PTSUNNY   54   3  12 N6        30.13F
ELY, NY        SUNNY     28   1  31 NE6       30.13S WCI  22
ELKO, NV       SUNNY     27   2  34 N3        30.20R
POCATELLO, ID  PTSUNNY   17  13  84 SW3       30.31R
BURLEY, ID     SUNNY     20  13  74 VRB3      30.29S
FORT BRIDGER,    N/A     17   3  54 W7        30.17R WCI   7
EVANSTON, WY   SUNNY     15   1  53 W6        30.13R WCI   6
ROCK SPRINGS,  SUNNY     11   3  70 W6        30.15R WCI   1

$$




USA.gov is the U.S. government's official web portal to all federal, state and local government web resources and services.